Vorticity
7 6 7 6 5 6 6 6 5 5 5 5 5 5 6 6 5 5 5 5 4 5 5 5 4 4 4 5 5 6 6 6 6 6 6 6 5 5 5 4 4 4 5
7 8 7 7 7 7 7 7 6 5 5 6 5 6 6 7 5 5 5 4 5 5 5 4 4 5 5 5 5 6 6 5 5 5 5 5 5 5 5 5 5 5 5
5 8 8 7 8 7 7 7 6 5 5 5 5 5 6 7 6 5 5 5 6 5 5 5 4 4 5 5 5 6 6 5 6 5 5 5 5 4 4 5 5 6 6
5 7 9 8 7 7 8 7 7 7 6 5 5 6 6 6 6 5 5 6 5 5 5 5 5 4 4 5 6 6 6 7 6 5 5 5 5 5 5 6 6 6 5
10 5 9 8 7 7 8 8 9 7 7 6 5 5 6 5 5 6 6 6 5 5 5 5 5 5 5 5 5 6 6 5 5 5 4 4 4 5 5 6 6 5 5
4 -2 7 9 7 8 9 9 8 7 6 5 6 6 6 7 6 6 6 6 5 5 5 5 5 5 5 5 6 5 5 5 5 5 4 4 5 6 5 5 5 5 5
8 7 3 8 8 8 9 10 8 7 7 6 7 5 7 6 6 5 5 5 5 5 6 5 5 5 5 5 6 4 4 5 6 5 5 6 7 7 6 6 6 6 7
-1 13 1 6 8 8 8 7 8 8 7 6 7 7 5 5 6 7 6 6 6 5 5 6 5 6 7 4 2 3 5 7 5 5 5 6 7 6 5 5 6 8 9
-8 -8 20 -0 7 8 8 9 9 8 8 10 7 4 7 5 9 6 6 6 5 6 6 5 5 7 0 3 2 5 10 6 5 6 6 6 6 6 7 8 9 9 8
29 23 28 -8 -14 6 8 9 10 9 8 6 9 8 8 7 4 7 6 7 6 7 5 5 6 3 3 -5 7 9 6 5 5 5 6 6 6 7 8 9 9 9 9
13 17 21 47 -9 -3 8 10 9 9 8 8 8 7 7 6 7 8 6 10 6 6 7 6 0 -1 -4 12 8 5 6 5 5 5 6 8 8 9 10 11 11 10 10
16 19 24 16 21 -5 4 6 11 9 9 9 7 6 7 7 8 7 9 7 7 7 5 1 -1 0 12 8 7 6 4 5 6 8 8 9 10 12 13 11 11 11 11
-4 19 8 22 44 14 9 7 7 8 8 9 8 8 8 8 8 9 9 8 7 6 1 -4 8 20 7 4 4 6 6 6 8 8 9 12 13 12 10 11 13 15 12
1 11 11 6 -1 -6 8 6 5 6 7 7 8 8 9 9 10 9 7 7 6 0 -7 13 2 5 6 5 6 6 7 8 7 9 12 12 11 10 12 13 11 10 9
5 12 19 23 27 6 1 3 7 9 9 10 10 10 10 9 7 8 7 5 -2 10 -0 11 16 5 7 6 7 6 8 10 12 12 9 10 9 12 13 11 10 9 8
-2 22 22 13 18 18 14 14 8 7 7 8 8 9 10 8 6 3 -2 -1 -11 11 15 8 7 7 6 7 8 9 11 10 10 11 12 11 11 11 11 9 6 6 5
36 11 17 20 8 11 10 8 15 8 9 8 5 3 -4 -5 6 6 -0 24 27 12 6 6 5 6 7 8 9 10 10 10 12 11 11 10 10 10 9 8 8 7 7
24 15 7 8 5 21 0 5 1 2 -2 5 11 -4 -9 -2 11 7 16 9 5 6 6 7 6 7 8 9 9 11 11 10 10 12 10 9 10 9 9 8 8 8 7
15 15 13 11 13 15 9 5 3 6 1 -5 -3 11 22 17 24 17 8 5 6 6 6 6 7 9 8 10 11 11 10 12 10 10 9 9 9 10 10 9 8 7 7
15 18 9 11 7 6 4 4 -8 6 3 16 9 4 17 25 16 8 6 8 7 6 6 7 9 10 11 11 10 11 13 13 9 10 11 9 13 10 11 8 7 7 8
5 6 13 3 -5 3 5 11 12 4 17 16 28 18 7 5 6 6 6 6 5 6 8 10 11 9 8 9 11 9 10 11 11 9 13 7 11 9 9 10 8 7 8
13 7 9 -10 -12 5 11 6 12 11 20 9 8 6 6 6 6 5 5 6 7 8 9 10 10 10 10 11 11 12 11 12 13 10 9 12 12 12 10 9 9 10 9
2 9 -3 -13 10 13 13 12 18 21 6 6 5 6 6 6 5 6 6 6 7 10 11 10 9 10 12 9 8 11 11 11 9 8 7 10 9 10 11 10 12 10 7
-2 10 4 2 11 13 14 14 20 6 4 5 2 6 5 5 4 5 6 8 11 11 10 9 7 9 11 11 11 11 9 9 11 9 7 8 11 10 9 12 13 9 9
6 16 17 12 12 16 29 10 3 4 3 7 6 3 4 5 5 6 7 11 11 11 9 7 11 13 12 10 9 10 10 10 9 9 6 6 9 11 10 10 9 11 12
16 12 12 9 13 5 9 4 6 7 6 4 4 4 5 5 6 7 10 11 10 9 10 13 10 9 9 9 10 10 9 9 10 9 7 8 9 12 12 8 10 12 16
Height
3131 3133 3135 3137 3140 3142 3144 3146 3148 3150 3152 3153 3153 3157 3159 3160 3160 3161 3162 3162 3162 3162 3162 3161 3161 3160 3159 3159 3159 3158 3157 3156 3155 3154 3152 3151 3150 3149 3147 3145 3143 3142 3140
3126 3128 3131 3133 3136 3139 3141 3143 3145 3146 3149 3150 3150 3155 3157 3158 3158 3159 3160 3160 3160 3160 3160 3159 3159 3158 3158 3157 3156 3155 3154 3153 3152 3150 3149 3147 3146 3144 3143 3141 3139 3137 3135
3121 3123 3127 3129 3132 3133 3137 3139 3141 3143 3145 3147 3147 3152 3154 3155 3155 3156 3156 3157 3158 3158 3158 3157 3156 3155 3155 3154 3153 3152 3151 3149 3148 3146 3145 3143 3141 3139 3137 3136 3134 3132 3129
3114 3117 3122 3124 3127 3129 3132 3135 3138 3140 3142 3143 3143 3147 3150 3151 3153 3154 3154 3155 3155 3155 3155 3154 3153 3152 3152 3151 3150 3149 3147 3145 3143 3142 3140 3138 3136 3134 3132 3129 3126 3124 3121
3106 3110 3115 3118 3122 3125 3128 3131 3134 3136 3138 3139 3139 3142 3146 3147 3147 3150 3152 3151 3152 3152 3152 3151 3151 3151 3150 3148 3146 3144 3143 3140 3138 3136 3134 3131 3129 3127 3124 3121 3118 3114 3112
3099 3102 3107 3111 3115 3119 3123 3126 3129 3131 3132 3135 3137 3138 3141 3144 3145 3145 3146 3147 3148 3148 3148 3148 3148 3147 3146 3144 3142 3140 3138 3136 3133 3131 3128 3125 3123 3120 3116 3113 3110 3106 3102
3093 3094 3098 3104 3109 3113 3118 3121 3123 3126 3127 3130 3134 3136 3137 3138 3140 3142 3143 3143 3143 3144 3144 3144 3144 3143 3141 3138 3137 3135 3134 3130 3127 3125 3122 3119 3117 3113 3110 3106 3102 3098 3094
3083 3084 3090 3097 3103 3107 3111 3115 3118 3120 3123 3125 3129 3131 3133 3136 3137 3138 3139 3140 3140 3140 3140 3140 3139 3139 3138 3135 3132 3129 3126 3124 3121 3118 3115 3112 3108 3105 3101 3097 3093 3089 3084
3078 3078 3081 3090 3096 3101 3107 3112 3114 3116 3119 3121 3124 3127 3128 3130 3133 3134 3134 3135 3135 3135 3135 3135 3134 3133 3131 3128 3127 3123 3121 3118 3115 3110 3107 3104 3100 3096 3091 3087 3083 3077 3072
3070 3074 3075 3081 3086 3095 3102 3108 3110 3113 3115 3117 3120 3123 3124 3126 3127 3130 3131 3131 3130 3131 3130 3130 3130 3127 3125 3124 3121 3117 3114 3111 3107 3102 3100 3095 3091 3087 3082 3077 3071 3065 3061
3062 3066 3069 3074 3079 3085 3097 3102 3106 3108 3110 3113 3116 3118 3119 3121 3122 3125 3125 3128 3127 3127 3127 3126 3124 3123 3121 3118 3115 3111 3107 3104 3098 3095 3091 3087 3084 3079 3073 3067 3061 3055 3050
3058 3060 3061 3066 3071 3078 3085 3092 3098 3102 3105 3108 3111 3114 3116 3118 3119 3121 3121 3122 3122 3121 3120 3120 3118 3116 3114 3109 3107 3107 3099 3095 3091 3087 3084 3079 3075 3069 3063 3057 3052 3045 3040
3051 3054 3056 3062 3067 3073 3080 3084 3091 3096 3099 3104 3107 3110 3111 3113 3116 3117 3117 3116 3116 3115 3115 3114 3112 3110 3106 3103 3100 3097 3092 3089 3084 3080 3075 3069 3064 3059 3053 3047 3042 3037 3031
3044 3046 3050 3055 3064 3071 3075 3079 3085 3091 3096 3100 3103 3104 3107 3108 3110 3111 3112 3112 3111 3110 3109 3106 3105 3102 3100 3097 3094 3090 3086 3081 3076 3071 3066 3061 3055 3049 3043 3038 3034 3030 3024
3038 3041 3046 3051 3058 3063 3072 3077 3081 3086 3092 3096 3099 3100 3102 3103 3106 3106 3107 3107 3107 3105 3102 3100 3098 3096 3095 3091 3086 3082 3078 3073 3067 3062 3057 3052 3046 3040 3035 3031 3026 3022 3018
3030 3033 3041 3048 3056 3062 3069 3075 3078 3082 3087 3088 3091 3094 3096 3099 3100 3101 3101 3102 3100 3098 3095 3096 3093 3091 3088 3084 3078 3073 3069 3063 3059 3055 3047 3043 3038 3032 3027 3024 3018 3015 3011
3022 3028 3038 3048 3054 3061 3066 3071 3075 3078 3082 3084 3088 3091 3092 3094 3096 3096 3095 3095 3093 3092 3091 3091 3089 3085 3080 3075 3070 3064 3060 3056 3051 3045 3039 3035 3031 3027 3021 3016 3011 3007 3003
3020 3025 3034 3044 3053 3059 3064 3068 3071 3076 3080 3084 3085 3088 3089 3089 3088 3088 3086 3087 3088 3086 3086 3086 3082 3077 3071 3067 3062 3058 3053 3049 3043 3037 3032 3028 3023 3018 3013 3010 3006 3001 2997
3016 3024 3033 3041 3049 3056 3061 3064 3069 3073 3077 3079 3081 3081 3082 3082 3082 3082 3082 3083 3083 3083 3081 3078 3075 3070 3064 3060 3055 3052 3046 3040 3034 3030 3028 3022 3017 3013 3009 3003 2999 2994 2988
3018 3025 3032 3040 3047 3054 3058 3062 3066 3068 3071 3073 3074 3075 3075 3076 3078 3078 3078 3079 3078 3075 3072 3068 3066 3061 3057 3052 3047 3044 3040 3032 3029 3025 3023 3015 3009 3005 3001 2996 2993 2988 2981
3018 3027 3033 3039 3045 3050 3054 3057 3060 3063 3065 3067 3069 3072 3073 3074 3075 3074 3076 3073 3071 3068 3064 3061 3058 3054 3049 3044 3038 3034 3032 3029 3024 3020 3019 3010 3007 3000 2994 2990 2984 2978 2973
3020 3026 3035 3040 3045 3048 3050 3053 3056 3059 3061 3064 3069 3070 3071 3072 3072 3071 3069 3067 3065 3061 3056 3054 3050 3045 3041 3037 3032 3029 3024 3022 3021 3015 3011 3007 3000 2995 2987 2980 2975 2969 2964
3022 3028 3033 3038 3041 3045 3048 3050 3053 3055 3059 3063 3067 3068 3068 3068 3069 3067 3065 3061 3058 3055 3050 3047 3043 3038 3034 3030 3027 3023 3018 3015 3011 3006 3001 3000 2992 2988 2979 2972 2967 2962 2956
3022 3027 3032 3036 3040 3043 3045 3047 3049 3052 3058 3062 3065 3066 3066 3065 3063 3062 3058 3055 3052 3049 3044 3041 3035 3032 3027 3024 3021 3017 3013 3009 3006 3001 2994 2990 2985 2979 2975 2967 2962 2956 2950
3021 3026 3030 3034 3038 3041 3042 3046 3047 3053 3059 3061 3063 3063 3062 3061 3059 3056 3053 3049 3046 3042 3038 3035 3030 3026 3022 3017 3014 3012 3008 3002 2999 2996 2989 2982 2978 2972 2968 2964 2959 2951 2944
3021 3025 3029 3034 3036 3039 3042 3045 3051 3056 3058 3059 3059 3059 3058 3056 3053 3049 3046 3043 3040 3036 3033 3028 3025 3021 3017 3013 3009 3004 3001 2997 2991 2988 2982 2976 2971 2963 2958 2955 2950 2943 2937